[[{"header":{"parameterUnit":"m.s-1","parameterCategory":2,"la1":30.2991,"la2":30.254,"lo1":-89.0895,"lo2":-89.0444,"dy":0.0017,"dx":0.0017,"nx":28,"ny":28,"refTime":"2023-11-07T09:00:00:Z","depth":"0","parameterNumber":2,"parameterNumberName":"U-component_of_CURRENTS"},"data":[0,0,0,0,0,0,0,0,0,0,0,0,0,0,0,0,0,0,0,0,0,0,0,0,0,0,0,0,0,0,0,0,0,0,0,0,0,0,0,0,0,0,0,0,0,0,0,0,0,0,0,0,0,0,0,0,0,0,0.049,0.049,0,0.0449,0.0449,0.0448,0.0416,0.0416,0.0416,0.0416,0.0496,0.0499,0.0501,0,0,0,0,0,0,0,0,0,0,0,0,0,0.0499,0.0499,0.049,0.049,0.049,0.0449,0.0448,0.0448,0.0416,0.0416,0.0416,0.0416,0.0496,0.0498,0.0501,0,0,0,0,0,0,0,0,0,0,0,0,0,0.0478,0.0499,0.049,0.047,0.0468,0.0449,0.0448,0.0448,0.0416,0.0416,0.0416,0.0416,0.0495,0.0498,0.0501,0.0526,0,0,0.0512,0.0513,0,0,0,0,0,0,0,0,0.048,0.0478,0.0474,0.0472,0.047,0.0439,0.0481,0.048,0.0416,0.0434,0.0416,0.0416,0.049,0.0494,0.0482,0.0529,0.0533,0.0512,0.0514,0.0516,0.0516,0,0,0,0,0,0,0,0.0481,0.0479,0.0472,0.0473,0.0471,0.0449,0.0446,0.048,0.0464,0.0432,0.0431,0.0429,0.049,0.0479,0.0484,0.0534,0.0512,0.0515,0.0517,0.0518,0.057,0.0569,0,0,0,0,0,0,0.0493,0.0481,0.0473,0.0471,0.0477,0.045,0.0446,0.0448,0.0461,0.0463,0.0429,0.0428,0.0473,0.048,0.0487,0.0485,0.0515,0.0519,0.0521,0.057,0.057,0.0569,0,0,0,0,0,0,0.0493,0.0493,0.0475,0.0476,0.0473,0.045,0.0452,0.0447,0.0432,0.0458,0.0461,0.0419,0.0473,0.0482,0.0499,0.0489,0.052,0.0523,0.0571,0.057,0.0569,0.0502,0,0,0,0,0,0,0.0494,0.0493,0.0498,0.0477,0.0473,0.0464,0.0452,0.0446,0.0432,0.043,0.0451,0.0457,0.0474,0.0493,0.0502,0.0495,0.0526,0.0572,0.0571,0.057,0.0506,0.0499,0.0494,0,0,0,0,0,0.0494,0.0506,0.0498,0.0497,0.0481,0.0464,0.0459,0.0441,0.0432,0.0426,0.0429,0.0456,0.0492,0.0496,0.0506,0.0499,0.0573,0.0571,0.057,0.0508,0.0501,0.0494,0,0,0,0,0,0,0.0515,0.0503,0.0494,0.0503,0.0483,0.0459,0.0457,0.044,0.0433,0.0433,0.0452,0.0459,0.0468,0.0495,0.0499,0.0509,0.0536,0.0537,0.0486,0.0479,0.0474,0.0451,0.0529,0,0,0,0,0,0.0522,0.0525,0.0505,0.051,0.0503,0.0477,0.0468,0.0451,0.0443,0.0438,0.0448,0.0461,0.047,0.0483,0.05,0.0515,0.0484,0.0516,0.051,0.0505,0.0493,0.0425,0.0411,0.0564,0.0564,0.0564,0,0,0.0531,0.0526,0.0527,0.0514,0.0499,0.0478,0.0471,0.0455,0.0431,0.0454,0.0435,0.0446,0.0469,0.047,0.0478,0.0493,0.0442,0.0503,0.0499,0.0489,0.0422,0.0407,0.0393,0.0563,0.0563,0.0563,0,0,0.0536,0.0546,0.0537,0.0529,0.0507,0.0484,0.0479,0.045,0.0433,0.0419,0.0419,0.0416,0.0445,0.0439,0.0446,0.0425,0.0412,0.0439,0.0395,0.033,0.0316,0.0303,0.0222,0.0202,0.0438,0.0438,0.0438,0,0.0541,0.0538,0.0532,0.0522,0.0511,0.0485,0.0463,0.0441,0.0417,0.04,0.0411,0.04,0.0424,0.0403,0.0386,0.0411,0.0361,0.0418,0.0319,0.0306,0.0294,0.0214,0.0194,0.0435,0.0435,0.0435,0.0436,0,0.0524,0.0534,0.0534,0.0505,0.0487,0.0476,0.0441,0.0412,0.0391,0.0369,0.0345,0.0355,0.0349,0.0353,0.0364,0.0299,0.0284,0.0314,0.0329,0.0274,0.0194,0.0173,0.043,0.0431,0.0432,0.0433,0,0,0.0519,0.0517,0.0523,0.0513,0.0483,0.0463,0.0417,0.0368,0.0336,0.0314,0.0273,0.0271,0.0271,0.0277,0.0287,0.0228,0.0099,0.0228,0.0226,0.0134,-0.0079,0.0035,0.0024,0.01,0.0097,0.0094,-0.0111,0,0.0507,0.0497,0.0488,0.0467,0.0459,0.0424,0.0383,0.0335,0.0307,0.0265,0.0248,0.0238,0.0246,0.0249,0.0181,0.0146,0.0046,0.0151,-0.0,-0.0005,0.0093,0.0005,0.0203,0.0048,-0.0131,-0.0134,-0.0137,0,0.0499,0.0494,0.0479,0.0455,0.0443,0.042,0.0349,0.0316,0.0253,0.0231,0.0196,0.0192,0.0132,0.0145,-0.0004,0.0058,-0.0037,-0.0087,-0.0095,0.0023,0.0073,0.0081,0.0019,0.0011,-0.0168,-0.0165,-0.0163,0,0.0506,0.0495,0.0482,0.048,0.0435,0.041,0.0378,0.0315,0.0292,0.023,0.0217,0.0133,0.0127,-0.0008,-0.0081,-0.0066,-0.0262,-0.0242,-0.0255,-0.0249,-0.01,-0.0074,-0.0191,-0.0415,-0.0415,-0.0414,-0.0414,0,0.0511,0.0512,0.0496,0.0496,0.0469,0.0433,0.04,0.0352,0.0303,0.0283,0.0227,0.0211,0.0086,-0.0011,-0.0128,-0.023,-0.0302,-0.0293,-0.0297,-0.0116,-0.009,-0.0101,-0.0189,-0.0422,-0.042,-0.0419,-0.0417,0,0.0533,0.0528,0.0524,0.049,0.0485,0.0473,0.0444,0.0419,0.0375,0.0348,0.0336,0.0256,0.0165,0.0027,-0.0169,-0.0239,-0.0372,-0.0417,-0.0196,-0.0168,-0.0133,-0.0232,-0.0442,-0.0428,-0.0469,-0.0467,-0.0466,0,0.0531,0.0537,0.0536,0.0539,0.0535,0.0523,0.051,0.0465,0.0446,0.0391,0.0378,0.0305,0.0269,0.0051,-0.0052,-0.0239,-0.034,-0.0222,-0.0141,-0.0127,-0.0245,-0.0322,-0.0301,-0.0005,-0.0,0.0004,0.0007,0,0.0529,0.0546,0.0544,0.0564,0.057,0.0565,0.0553,0.0553,0.0498,0.0483,0.0456,0.0436,0.0332,0.0293,0.0101,0.0003,-0.0164,-0.0142,-0.019,0.0047,0.0012,0.0029,0.0099,0.0043,0.004,0.0037,0.0035,0.0034,0.0534,0.0545,0.056,0.0581,0.0583,0.0594,0.0599,0.0592,0.0586,0.0572,0.0545,0.0562,0.0556,0.0391,0.0271,0.0238,0.0058,0.021,0.0059,-0.0042,0.0067,0.0219,0.0222,0.0219,0.0217,0.0215,0.0214,0,0.0524,0.0548,0.0567,0.0586,0.0593,0.0603,0.0603,0.0611,0.0624,0.0657,0.0659,0.074,0.0758,0.0684,0.0646,0.0496,0.0411,0.0362,0.03,0.0291,0.0401,0.0533,0.0685,0.0685,0.0685,0.0685,0.0685,0.0685,0.0523,0.0546,0.057,0.0595,0.0606,0.0612,0.0626,0.065,0.0675,0.0749,0.0816,0.0851,0.0877,0.0793,0.0707,0.0612,0.0411,0.0337,0.0152,0.0265,0.0241,0.0217,0.0328,0.0434,0.0433,0.0227,0.0224,0.0222]},{"header":{"parameterUnit":"m.s-1","parameterCategory":2,"la1":30.2991,"la2":30.254,"lo1":-89.0895,"lo2":-89.0444,"dy":0.0017,"dx":0.0017,"nx":28,"ny":28,"refTime":"2023-11-07T09:00:00:Z","depth":"0","parameterNumber":3,"parameterNumberName":"V-component_of_CURRENTS"},"data":[0,0,0,0,0,0,0,0,0,0,0,0,0,0,0,0,0,0,0,0,0,0,0,0,0,0,0,0,0,0,0,0,0,0,0,0,0,0,0,0,0,0,0,0,0,0,0,0,0,0,0,0,0,0,0,0,0,0,-0.0043,-0.0042,0,0.0023,0.0024,0.0026,0.0044,0.0043,0.0042,0.0041,0.0189,0.0193,0.0198,0,0,0,0,0,0,0,0,0,0,0,0,0,-0.0079,-0.0079,-0.0043,-0.0042,-0.0042,0.0023,0.0024,0.0026,0.0044,0.0043,0.0042,0.0041,0.0187,0.0193,0.0199,0,0,0,0,0,0,0,0,0,0,0,0,0,-0.0039,-0.0078,-0.0043,-0.0029,-0.0027,0.0023,0.0025,0.0026,0.0044,0.0043,0.0041,0.004,0.0185,0.0192,0.0199,0.0268,0,0,0.0221,0.0224,0,0,0,0,0,0,0,0,-0.0041,-0.0037,-0.0031,-0.003,-0.0028,0.002,0.0066,0.011,0.0044,0.0022,0.0041,0.004,0.0138,0.0148,0.017,0.0275,0.0282,0.0222,0.0226,0.0229,0.0231,0,0,0,0,0,0,0,-0.0044,-0.0039,-0.0011,-0.0031,-0.0029,-0.0001,0.0003,0.0074,0.0092,0.0024,0.0024,0.0024,0.014,0.0163,0.0173,0.0284,0.0221,0.0228,0.0232,0.0235,0.0468,0.047,0,0,0,0,0,0,-0.0065,-0.0042,-0.0014,-0.001,-0.0043,0.0,0.0005,0.001,0.0089,0.0098,0.0025,0.0025,0.0151,0.0165,0.0179,0.0247,0.0229,0.0236,0.024,0.0467,0.0469,0.0471,0,0,0,0,0,0,-0.0065,-0.0062,-0.0016,-0.0029,-0.0022,0.0001,0.0007,0.0011,0.0032,0.0088,0.0099,0.0039,0.0151,0.0169,0.0245,0.0253,0.0239,0.0245,0.0464,0.0467,0.047,0.0395,0,0,0,0,0,0,-0.0067,-0.0063,-0.0056,-0.003,-0.0022,0.0005,0.0007,0.0014,0.0032,0.0032,0.0105,0.0117,0.0151,0.0234,0.0252,0.0263,0.0251,0.0462,0.0466,0.0469,0.0395,0.0395,0.0395,0,0,0,0,0,-0.0068,-0.0064,-0.0056,-0.0052,-0.0017,0.0005,0.0013,0.0028,0.0033,0.0044,0.0098,0.0114,0.027,0.0241,0.0262,0.0275,0.046,0.0464,0.0469,0.0395,0.0395,0.0395,0,0,0,0,0,0,-0.0078,-0.0061,-0.0052,-0.0043,-0.0023,0.0006,0.0015,0.0032,0.0084,0.0086,0.0143,0.016,0.0228,0.0277,0.0244,0.0358,0.0368,0.0376,0.0305,0.0306,0.0306,0.025,0.0257,0,0,0,0,0,-0.0076,-0.007,-0.0048,-0.0041,-0.0033,-0.0004,0.001,0.002,0.0061,0.0081,0.0137,0.0204,0.0266,0.0302,0.0367,0.0436,0.0428,0.0461,0.0461,0.046,0.0434,0.044,0.0436,0.0485,0.0485,0.0485,0,0,-0.0077,-0.007,-0.0064,-0.0042,-0.0026,-0.001,0.0002,0.0016,0.0034,0.0094,0.015,0.0209,0.0287,0.0352,0.0387,0.039,0.0444,0.0466,0.0464,0.0437,0.0444,0.0438,0.0433,0.0488,0.0488,0.0487,0,0,-0.0082,-0.0071,-0.0065,-0.0053,-0.0037,-0.0016,-0.0013,0.0025,0.0044,0.0107,0.015,0.0209,0.0321,0.0362,0.04,0.0449,0.0443,0.0482,0.0434,0.0441,0.0435,0.043,0.0396,0.0388,0.0481,0.0481,0.0481,0,-0.0078,-0.0076,-0.006,-0.0055,-0.0051,-0.0021,-0.0015,0.0016,0.0078,0.0083,0.0116,0.0242,0.032,0.0366,0.0387,0.0443,0.0427,0.0417,0.0433,0.0428,0.0424,0.0391,0.0383,0.0478,0.0478,0.0478,0.0479,0,-0.0084,-0.0078,-0.0079,-0.0062,-0.005,-0.0044,-0.0013,0.0007,0.004,0.0065,0.0117,0.0215,0.0276,0.0324,0.0375,0.039,0.0381,0.0425,0.0412,0.0413,0.038,0.0373,0.0473,0.0474,0.0475,0.0476,0,0,-0.0085,-0.008,-0.0084,-0.008,-0.0059,-0.0052,-0.0037,-0.0023,-0.0033,0.004,0.003,0.0159,0.0184,0.023,0.0299,0.0316,0.0291,0.035,0.0352,0.0277,0.0259,0.026,0.0252,0.0325,0.0324,0.0323,0.024,0,-0.0092,-0.0099,-0.0094,-0.0089,-0.0083,-0.0073,-0.0068,-0.0056,-0.0035,-0.0031,0.0031,0.0074,0.0157,0.0185,0.0211,0.0269,0.0272,0.0306,0.0304,0.0303,0.0271,0.0245,0.0321,0.0254,0.0233,0.0232,0.0231,0,-0.0091,-0.0104,-0.0111,-0.0115,-0.0116,-0.0107,-0.0128,-0.0118,-0.0123,-0.0114,-0.0094,-0.0048,-0.0011,0.0072,0.0116,0.0126,0.0183,0.0225,0.0224,0.0239,0.0291,0.026,0.0242,0.044,0.0221,0.0221,0.0222,0,-0.0101,-0.0105,-0.0119,-0.012,-0.0124,-0.0134,-0.0133,-0.0145,-0.0157,-0.017,-0.0188,-0.0154,-0.0127,-0.0072,0.0012,0.0064,0.003,0.0123,0.0165,0.0164,0.0235,0.0242,0.0375,0.0148,0.0149,0.0149,0.0149,0,-0.0102,-0.0108,-0.0124,-0.0135,-0.0158,-0.0152,-0.018,-0.0192,-0.0219,-0.024,-0.0224,-0.0236,-0.0158,-0.0159,-0.007,-0.0016,-0.0036,0.0124,0.0141,0.0213,0.022,0.0402,0.0446,0.0146,0.0146,0.0147,0.0148,0,-0.009,-0.0108,-0.0118,-0.0147,-0.0158,-0.0169,-0.0197,-0.0221,-0.0252,-0.0286,-0.0292,-0.0314,-0.0339,-0.0306,-0.0241,-0.0115,0.0019,-0.0028,0.002,0.0046,0.0318,0.0352,0.0332,0.0427,0.002,0.002,0.0019,0,-0.0087,-0.0094,-0.013,-0.0149,-0.0157,-0.0178,-0.0202,-0.023,-0.0254,-0.0317,-0.0337,-0.04,-0.0421,-0.0405,-0.0296,-0.0232,-0.0061,-0.0019,0.0131,0.0312,0.0364,0.0349,0.0432,0.0188,0.0189,0.019,0.0191,0,-0.0079,-0.0088,-0.0103,-0.0148,-0.0172,-0.0195,-0.0221,-0.025,-0.0285,-0.0318,-0.0368,-0.04,-0.0448,-0.0399,-0.0344,-0.0207,0.0103,0.0004,0.0201,0.0494,0.0473,0.0581,0.0232,0.0198,0.0197,0.0197,0.0196,0.0196,-0.0066,-0.0071,-0.0098,-0.0131,-0.0165,-0.0192,-0.0202,-0.0232,-0.0264,-0.0292,-0.0349,-0.0383,-0.0372,-0.0323,-0.0175,0.0191,0.0101,0.0426,0.044,0.0399,0.0533,0.0165,0.0154,0.0153,0.0153,0.0152,0.0151,0,-0.006,-0.0061,-0.0085,-0.0122,-0.0149,-0.017,-0.0205,-0.0206,-0.022,-0.0249,-0.0273,-0.0282,-0.0148,-0.001,0.0334,0.0627,0.0732,0.0798,0.0864,0.0927,0.0639,0.0702,0.0799,0.0799,0.0799,0.0799,0.0799,0.0798,-0.0051,-0.0064,-0.007,-0.0096,-0.0121,-0.0138,-0.0146,-0.0148,-0.0161,-0.0155,-0.016,-0.019,-0.0018,0.0426,0.0951,0.1085,0.1289,0.1209,0.129,0.1201,0.1171,0.1143,0.1223,0.1427,0.1428,0.1635,0.1638,0.1639]}],[{"header":{"parameterUnit":"m.s-1","parameterCategory":2,"la1":30.2991,"la2":30.254,"lo1":-89.0895,"lo2":-89.0444,"dy":0.0017,"dx":0.0017,"nx":28,"ny":28,"refTime":"2023-11-07T09:00:00:Z","depth":"2","parameterNumber":2,"parameterNumberName":"U-component_of_CURRENTS"},"data":[0,0,0,0,0,0,0,0,0,0,0,0,0,0,0,0,0,0,0,0,0,0,0,0,0,0,0,0,0,0,0,0,0,0,0,0,0,0,0,0,0,0,0,0,0,0,0,0,0,0,0,0,0,0,0,0,0,0,-0.2419,-0.242,0,-0.2446,-0.2447,-0.2447,-0.2328,-0.2325,-0.2321,-0.2318,-0.2224,-0.2225,-0.2226,0,0,0,0,0,0,0,0,0,0,0,0,0,-0.2326,-0.2328,-0.2419,-0.242,-0.242,-0.2446,-0.2447,-0.2447,-0.2329,-0.2325,-0.2321,-0.2317,-0.2224,-0.2225,-0.2226,0,0,0,0,0,0,0,0,0,0,0,0,0,-0.236,-0.2328,-0.2419,-0.2366,-0.2361,-0.2446,-0.2447,-0.2447,-0.233,-0.2325,-0.232,-0.2315,-0.2224,-0.2225,-0.2226,-0.2331,0,0,-0.2228,-0.2229,0,0,0,0,0,0,0,0,-0.2358,-0.2363,-0.2373,-0.2369,-0.2365,-0.238,-0.2379,-0.2403,-0.2331,-0.234,-0.2318,-0.2312,-0.227,-0.2267,-0.2283,-0.2327,-0.2323,-0.2229,-0.2229,-0.2229,-0.223,0,0,0,0,0,0,0,-0.2355,-0.2361,-0.2428,-0.2374,-0.2369,-0.2361,-0.2359,-0.2384,-0.2329,-0.2339,-0.2331,-0.2338,-0.2266,-0.2282,-0.2279,-0.2322,-0.2229,-0.2229,-0.223,-0.223,-0.2266,-0.2266,0,0,0,0,0,0,-0.2358,-0.236,-0.2428,-0.2429,-0.235,-0.2367,-0.2365,-0.2379,-0.2331,-0.2321,-0.2342,-0.2332,-0.2283,-0.2278,-0.2275,-0.224,-0.2229,-0.223,-0.2231,-0.2265,-0.2266,-0.2266,0,0,0,0,0,0,-0.2356,-0.2365,-0.2427,-0.2395,-0.2402,-0.2373,-0.239,-0.2382,-0.2347,-0.2335,-0.2321,-0.2309,-0.2279,-0.2274,-0.2262,-0.2241,-0.2231,-0.2232,-0.2265,-0.2266,-0.2266,-0.2271,0,0,0,0,0,0,-0.2354,-0.2364,-0.2362,-0.2396,-0.2404,-0.2451,-0.2395,-0.2386,-0.2363,-0.2349,-0.2305,-0.2293,-0.2275,-0.2261,-0.2263,-0.2242,-0.2232,-0.2264,-0.2265,-0.2266,-0.227,-0.2271,-0.2273,0,0,0,0,0,-0.2351,-0.2371,-0.2362,-0.2369,-0.2408,-0.2452,-0.2456,-0.2417,-0.2366,-0.2363,-0.2327,-0.2292,-0.2265,-0.2264,-0.2265,-0.2244,-0.2264,-0.2265,-0.2266,-0.2269,-0.2271,-0.2272,0,0,0,0,0,0,-0.2328,-0.2363,-0.2352,-0.238,-0.2402,-0.2431,-0.2426,-0.2408,-0.2385,-0.235,-0.2319,-0.2309,-0.2284,-0.228,-0.2278,-0.2256,-0.2252,-0.2253,-0.2253,-0.2255,-0.2256,-0.2266,-0.2233,0,0,0,0,0,-0.233,-0.2345,-0.2383,-0.24,-0.241,-0.2415,-0.2421,-0.2402,-0.2397,-0.2378,-0.2347,-0.2316,-0.2307,-0.2289,-0.2285,-0.2295,-0.2271,-0.2276,-0.2278,-0.2279,-0.2288,-0.2249,-0.2246,-0.2269,-0.2269,-0.2269,0,0,-0.2325,-0.2346,-0.2352,-0.2395,-0.2403,-0.2439,-0.2403,-0.241,-0.2416,-0.2378,-0.2351,-0.2325,-0.2313,-0.2305,-0.2293,-0.2287,-0.2256,-0.228,-0.2281,-0.229,-0.2249,-0.2247,-0.2245,-0.227,-0.227,-0.227,0,0,-0.234,-0.2343,-0.2364,-0.2391,-0.2412,-0.2429,-0.2425,-0.2438,-0.2407,-0.2413,-0.2369,-0.2335,-0.2328,-0.2308,-0.2302,-0.2319,-0.2268,-0.23,-0.231,-0.2271,-0.2268,-0.2266,-0.2214,-0.2207,-0.2296,-0.2296,-0.2296,0,-0.2326,-0.2367,-0.2376,-0.2413,-0.2431,-0.2423,-0.2455,-0.2456,-0.2453,-0.2435,-0.2391,-0.2361,-0.2333,-0.2332,-0.2318,-0.2318,-0.2284,-0.2302,-0.227,-0.2268,-0.2265,-0.2213,-0.2205,-0.2296,-0.2296,-0.2296,-0.2296,0,-0.2371,-0.2396,-0.2412,-0.2453,-0.2478,-0.2502,-0.2519,-0.2507,-0.2465,-0.2458,-0.2421,-0.2392,-0.2364,-0.2345,-0.2334,-0.2305,-0.2281,-0.2277,-0.2263,-0.2263,-0.2208,-0.22,-0.2297,-0.2297,-0.2296,-0.2296,0,0,-0.2351,-0.2427,-0.2426,-0.2453,-0.2496,-0.2525,-0.2535,-0.255,-0.2533,-0.2502,-0.2478,-0.2446,-0.2399,-0.2391,-0.236,-0.2323,-0.2256,-0.2286,-0.2284,-0.2229,-0.215,-0.2027,-0.2006,-0.2237,-0.2236,-0.2235,-0.2113,0,-0.2373,-0.2449,-0.2477,-0.2533,-0.2575,-0.2577,-0.2592,-0.2594,-0.2565,-0.254,-0.2493,-0.2461,-0.2428,-0.2392,-0.2354,-0.2289,-0.2237,-0.2289,-0.2166,-0.2162,-0.2047,-0.1994,-0.1868,-0.1739,-0.2104,-0.2103,-0.2102,0,-0.2398,-0.2452,-0.2503,-0.2574,-0.2587,-0.2601,-0.2605,-0.2622,-0.2596,-0.2565,-0.2527,-0.2492,-0.2441,-0.2403,-0.2292,-0.2321,-0.2233,-0.2179,-0.2173,-0.2054,-0.2023,-0.1803,-0.171,-0.2088,-0.2089,-0.209,-0.2091,0,-0.2376,-0.2467,-0.2499,-0.2524,-0.2596,-0.2583,-0.2605,-0.2598,-0.2585,-0.2563,-0.2521,-0.2496,-0.2428,-0.2359,-0.2227,-0.2253,-0.2086,-0.2112,-0.1924,-0.1914,-0.1783,-0.1762,-0.202,-0.202,-0.2021,-0.2021,-0.2021,0,-0.2396,-0.242,-0.2477,-0.2495,-0.2507,-0.2565,-0.2545,-0.2558,-0.2548,-0.2497,-0.2508,-0.2426,-0.2405,-0.2304,-0.2222,-0.2021,-0.2071,-0.1907,-0.1867,-0.1778,-0.176,-0.2056,-0.2062,-0.2016,-0.2017,-0.2018,-0.2019,0,-0.2356,-0.2397,-0.2431,-0.2486,-0.2485,-0.2482,-0.2493,-0.2475,-0.2482,-0.2409,-0.2393,-0.2352,-0.2218,-0.2177,-0.2045,-0.1964,-0.183,-0.1742,-0.1631,-0.1579,-0.1696,-0.1704,-0.1548,-0.1542,-0.1538,-0.1534,-0.153,0,-0.2341,-0.235,-0.2383,-0.2354,-0.2353,-0.2359,-0.2334,-0.2399,-0.2359,-0.2311,-0.2237,-0.215,-0.1999,-0.1795,-0.169,-0.1547,-0.1644,-0.1339,-0.1373,-0.1667,-0.1644,-0.1659,-0.1673,-0.1199,-0.1193,-0.1189,-0.1185,0,-0.228,-0.2262,-0.2272,-0.2232,-0.2192,-0.2192,-0.216,-0.2135,-0.216,-0.2108,-0.1959,-0.1856,-0.1668,-0.1478,-0.1337,-0.1218,-0.1372,-0.1235,-0.1545,-0.1338,-0.1327,-0.1309,-0.1336,-0.1143,-0.1147,-0.115,-0.1153,-0.1154,-0.2165,-0.2152,-0.2119,-0.2073,-0.2031,-0.1963,-0.1916,-0.1896,-0.1833,-0.171,-0.1675,-0.1482,-0.1426,-0.1137,-0.0994,-0.0904,-0.1023,-0.0983,-0.1002,-0.1026,-0.1007,-0.0988,-0.0736,-0.0738,-0.0739,-0.0741,-0.0742,0,-0.2025,-0.2,-0.1956,-0.1888,-0.1796,-0.1816,-0.174,-0.1687,-0.1565,-0.1448,-0.131,-0.1068,-0.0908,-0.0866,-0.0683,-0.0597,-0.0605,-0.0534,-0.0621,-0.066,-0.0696,-0.0667,-0.0303,-0.0302,-0.0301,-0.03,0,0,-0.1929,-0.1849,-0.185,-0.1653,-0.1585,-0.1449,-0.138,-0.1329,-0.1236,-0.1026,-0.0901,-0.0867,-0.0848,-0.0638,-0.0537,-0.0424,-0.0519,-0.0331,-0.0682,-0.0826,-0.0861,-0.0946,-0.0943,0,0,0,0,0]},{"header":{"parameterUnit":"m.s-1","parameterCategory":2,"la1":30.2991,"la2":30.254,"lo1":-89.0895,"lo2":-89.0444,"dy":0.0017,"dx":0.0017,"nx":28,"ny":28,"refTime":"2023-11-07T09:00:00:Z","depth":"2","parameterNumber":3,"parameterNumberName":"V-component_of_CURRENTS"},"data":[0,0,0,0,0,0,0,0,0,0,0,0,0,0,0,0,0,0,0,0,0,0,0,0,0,0,0,0,0,0,0,0,0,0,0,0,0,0,0,0,0,0,0,0,0,0,0,0,0,0,0,0,0,0,0,0,0,0,0.0111,0.0111,0,0.0147,0.0148,0.0148,0.0126,0.0125,0.0124,0.0123,0.0138,0.014,0.0141,0,0,0,0,0,0,0,0,0,0,0,0,0,0.0147,0.0145,0.0111,0.0111,0.0112,0.0147,0.0148,0.0149,0.0126,0.0125,0.0124,0.0122,0.0138,0.0139,0.0141,0,0,0,0,0,0,0,0,0,0,0,0,0,0.0153,0.0145,0.0111,0.0104,0.0104,0.0147,0.0148,0.0149,0.0127,0.0125,0.0123,0.0122,0.0137,0.0139,0.0141,0.0191,0,0,0.0148,0.0149,0,0,0,0,0,0,0,0,0.0152,0.0152,0.0105,0.0104,0.0104,0.0129,0.0166,0.0161,0.0127,0.0119,0.0123,0.0121,0.0134,0.0136,0.0149,0.0191,0.0192,0.0148,0.015,0.0151,0.0151,0,0,0,0,0,0,0,0.0152,0.0151,0.0127,0.0105,0.0105,0.0142,0.014,0.0166,0.0137,0.012,0.0118,0.0121,0.0133,0.0147,0.0149,0.0192,0.0148,0.015,0.0152,0.0153,0.0213,0.0213,0,0,0,0,0,0,0.014,0.0149,0.0125,0.0128,0.0123,0.0142,0.014,0.0124,0.0137,0.0137,0.0122,0.0119,0.0144,0.0147,0.015,0.0134,0.0151,0.0153,0.0154,0.0213,0.0213,0.0213,0,0,0,0,0,0,0.014,0.0137,0.0124,0.014,0.014,0.0142,0.0126,0.0126,0.0104,0.0138,0.0138,0.0096,0.0143,0.0146,0.0154,0.0137,0.0154,0.0156,0.0213,0.0213,0.0213,0.015,0,0,0,0,0,0,0.0141,0.0136,0.0114,0.0138,0.0139,0.0133,0.0127,0.0128,0.011,0.0106,0.0117,0.0119,0.0142,0.0151,0.0156,0.014,0.0158,0.0212,0.0213,0.0213,0.0152,0.0148,0.0145,0,0,0,0,0,0.0142,0.0117,0.0112,0.0109,0.0109,0.0132,0.0136,0.0134,0.011,0.0106,0.0112,0.0116,0.0157,0.0153,0.0159,0.0143,0.0212,0.0213,0.0213,0.0153,0.0149,0.0145,0,0,0,0,0,0,0.0121,0.0113,0.0108,0.008,0.0098,0.0127,0.0115,0.0116,0.0119,0.0097,0.0123,0.0127,0.0127,0.0151,0.0145,0.0165,0.0184,0.0186,0.0137,0.0133,0.0129,0.016,0.016,0,0,0,0,0,0.0107,0.0079,0.0097,0.0074,0.0074,0.0089,0.0091,0.0089,0.01,0.0097,0.011,0.0123,0.0144,0.0147,0.0172,0.0184,0.024,0.0179,0.0176,0.0173,0.0204,0.0284,0.0291,0.0215,0.0215,0.0215,0,0,0.0093,0.0085,0.0068,0.0067,0.0072,0.0079,0.0084,0.0073,0.0082,0.01,0.0099,0.011,0.0146,0.0158,0.016,0.0168,0.0216,0.0173,0.017,0.0204,0.0285,0.0293,0.03,0.0216,0.0216,0.0216,0,0,0.006,0.0041,0.0009,0.0019,0.0017,0.0045,0.0033,0.0048,0.0051,0.0065,0.0074,0.0089,0.0111,0.0146,0.0164,0.0165,0.0196,0.0144,0.0149,0.0224,0.0231,0.0238,0.0284,0.0296,0.014,0.014,0.014,0,0.004,0.0007,0.001,-0.0008,-0.0005,0.0023,0.0011,0.0036,0.0055,0.0072,0.0053,0.0111,0.0122,0.0168,0.0155,0.0159,0.0192,0.0152,0.022,0.0229,0.0237,0.0282,0.0296,0.0137,0.0137,0.0138,0.0138,0,-0.0004,-0.0031,-0.0046,-0.0057,-0.0047,-0.0053,-0.0015,0.0,0.0007,0.0041,0.0074,0.0107,0.0146,0.0137,0.0141,0.0195,0.0193,0.0204,0.0228,0.0241,0.0287,0.0303,0.0133,0.0134,0.0135,0.0135,0,0,-0.0051,-0.0074,-0.0082,-0.0096,-0.0079,-0.0072,-0.0044,0.0006,0.0028,0.0059,0.0102,0.0132,0.0146,0.017,0.0176,0.0234,0.0291,0.0228,0.0233,0.0269,0.0431,0.0437,0.0455,0.03,0.0304,0.0306,0.0426,0,-0.0087,-0.0132,-0.0123,-0.0142,-0.0159,-0.0113,-0.0087,-0.0041,0.0013,0.007,0.0131,0.0162,0.016,0.0153,0.0218,0.0276,0.0336,0.0257,0.0419,0.0425,0.0426,0.0475,0.0412,0.0515,0.0442,0.0444,0.0446,0,-0.0138,-0.0156,-0.0197,-0.0194,-0.0197,-0.0192,-0.0134,-0.0106,-0.0,0.0029,0.0103,0.0156,0.0238,0.023,0.038,0.0319,0.0376,0.043,0.0436,0.0488,0.0462,0.0499,0.0547,0.0474,0.0471,0.0469,0.0468,0,-0.0186,-0.0207,-0.0241,-0.0244,-0.023,-0.0229,-0.0207,-0.0126,-0.0098,0.0008,0.0044,0.0165,0.0211,0.0325,0.0418,0.0399,0.059,0.0584,0.0656,0.0655,0.0665,0.066,0.0719,0.0718,0.0718,0.0718,0.0718,0,-0.0237,-0.0262,-0.0271,-0.0294,-0.0316,-0.0292,-0.0284,-0.0236,-0.0159,-0.0108,0.0004,0.0084,0.0236,0.0361,0.0447,0.0598,0.0617,0.069,0.0707,0.0635,0.0627,0.0647,0.0638,0.0722,0.0721,0.072,0.072,0,-0.0304,-0.0309,-0.0349,-0.0352,-0.0352,-0.0378,-0.0357,-0.0333,-0.0265,-0.0184,-0.0159,0.0028,0.0192,0.0341,0.0535,0.0626,0.0769,0.081,0.0699,0.0702,0.0777,0.0762,0.0939,0.0941,0.0942,0.0943,0.0944,0,-0.0345,-0.038,-0.041,-0.0432,-0.0442,-0.0461,-0.0462,-0.0407,-0.036,-0.0205,-0.0153,0.0023,0.0189,0.0471,0.0657,0.0843,0.0802,0.0865,0.0846,0.0812,0.081,0.0793,0.0777,0.0814,0.0814,0.0814,0.0814,0,-0.0418,-0.0438,-0.0469,-0.0514,-0.0536,-0.0543,-0.0524,-0.0495,-0.0396,-0.0295,-0.0114,0.0031,0.0312,0.0539,0.0754,0.0838,0.0835,0.0871,0.0898,0.0762,0.0703,0.0697,0.0684,0.0813,0.0813,0.0813,0.0813,0.0813,-0.0471,-0.0513,-0.0552,-0.059,-0.0609,-0.0592,-0.0572,-0.05,-0.0404,-0.0225,-0.0107,0.015,0.0311,0.0689,0.0764,0.086,0.0925,0.0905,0.0903,0.0901,0.0859,0.0805,0.0925,0.0925,0.0926,0.0927,0.0927,0,-0.0527,-0.056,-0.061,-0.0642,-0.0657,-0.065,-0.0582,-0.0513,-0.0364,-0.0202,-0.0038,0.0187,0.0437,0.0601,0.0802,0.0897,0.085,0.0823,0.0744,0.0747,0.075,0.0695,0.0721,0.072,0.0719,0.0719,0,0,-0.0555,-0.0616,-0.0637,-0.0667,-0.068,-0.0646,-0.0592,-0.0467,-0.0317,-0.0139,0.0059,0.026,0.0522,0.0571,0.0627,0.0696,0.0671,0.0657,0.0821,0.0719,0.0718,0.0807,0.073,0,0,0,0,0]}],[{"header":{"parameterUnit":"m.s-1","parameterCategory":2,"la1":30.2991,"la2":30.254,"lo1":-89.0895,"lo2":-89.0444,"dy":0.0017,"dx":0.0017,"nx":28,"ny":28,"refTime":"2023-11-07T09:00:00:Z","depth":"4","parameterNumber":2,"parameterNumberName":"U-component_of_CURRENTS"},"data":[0,0,0,0,0,0,0,0,0,0,0,0,0,0,0,0,0,0,0,0,0,0,0,0,0,0,0,0,0,0,0,0,0,0,0,0,0,0,0,0,0,0,0,0,0,0,0,0,0,0,0,0,0,0,0,0,0,0,-0.1017,-0.1017,0,-0.1033,-0.1033,-0.1033,-0.105,-0.1051,-0.1051,-0.1052,-0.1101,-0.1102,-0.1102,0,0,0,0,0,0,0,0,0,0,0,0,0,-0.094,-0.0941,-0.1017,-0.1017,-0.1018,-0.1033,-0.1033,-0.1033,-0.105,-0.1051,-0.1052,-0.1052,-0.1101,-0.1102,-0.1102,0,0,0,0,0,0,0,0,0,0,0,0,0,-0.0963,-0.0942,-0.1017,-0.1031,-0.1033,-0.1033,-0.1033,-0.1033,-0.105,-0.1051,-0.1052,-0.1053,-0.11,-0.1101,-0.1103,-0.1091,0,0,-0.1106,-0.1106,0,0,0,0,0,0,0,0,-0.0962,-0.0965,-0.1029,-0.103,-0.1032,-0.1044,-0.1024,-0.1056,-0.105,-0.1039,-0.1052,-0.1053,-0.1087,-0.1089,-0.1084,-0.1094,-0.1096,-0.1106,-0.1107,-0.1107,-0.1107,0,0,0,0,0,0,0,-0.096,-0.0964,-0.1019,-0.1029,-0.1032,-0.1017,-0.1021,-0.1029,-0.1055,-0.104,-0.1043,-0.105,-0.1088,-0.1083,-0.1086,-0.1096,-0.1106,-0.1107,-0.1108,-0.1108,-0.1248,-0.1251,0,0,0,0,0,0,-0.0968,-0.0963,-0.1019,-0.102,-0.1003,-0.1018,-0.1022,-0.1036,-0.1055,-0.1059,-0.105,-0.1051,-0.1081,-0.1084,-0.1087,-0.1194,-0.1107,-0.1108,-0.1109,-0.1245,-0.1249,-0.1252,0,0,0,0,0,0,-0.0967,-0.0973,-0.1018,-0.0995,-0.1,-0.1019,-0.1034,-0.1036,-0.1051,-0.1062,-0.1067,-0.1065,-0.1081,-0.1086,-0.1123,-0.1192,-0.1109,-0.111,-0.1241,-0.1246,-0.125,-0.1332,0,0,0,0,0,0,-0.0965,-0.0973,-0.0991,-0.0996,-0.1002,-0.1035,-0.1033,-0.1036,-0.1055,-0.1058,-0.1077,-0.1081,-0.1082,-0.1121,-0.1124,-0.1192,-0.1111,-0.1237,-0.1243,-0.1249,-0.1326,-0.1339,-0.135,0,0,0,0,0,-0.0962,-0.0977,-0.0992,-0.0999,-0.1025,-0.1036,-0.1038,-0.1051,-0.1056,-0.1066,-0.1086,-0.1081,-0.1161,-0.1123,-0.1126,-0.1196,-0.1235,-0.1242,-0.1248,-0.132,-0.1336,-0.135,0,0,0,0,0,0,-0.0955,-0.098,-0.0997,-0.1021,-0.1039,-0.1041,-0.1053,-0.106,-0.108,-0.109,-0.1096,-0.1102,-0.1166,-0.1167,-0.1125,-0.1258,-0.1207,-0.1215,-0.1261,-0.1276,-0.1288,-0.1272,-0.1112,0,0,0,0,0,-0.0963,-0.098,-0.1004,-0.1025,-0.1037,-0.1048,-0.1057,-0.1069,-0.1084,-0.1094,-0.1121,-0.1156,-0.1193,-0.122,-0.1245,-0.13,-0.1269,-0.1358,-0.137,-0.138,-0.1373,-0.1396,-0.1408,-0.1274,-0.1274,-0.1274,0,0,-0.0969,-0.0983,-0.0997,-0.1025,-0.1038,-0.1054,-0.1055,-0.1077,-0.1112,-0.1097,-0.1163,-0.1189,-0.1214,-0.1286,-0.1318,-0.1298,-0.1401,-0.1389,-0.1397,-0.1383,-0.1404,-0.1417,-0.1428,-0.1279,-0.1278,-0.1277,0,0,-0.0975,-0.1002,-0.1018,-0.1029,-0.1058,-0.1068,-0.108,-0.111,-0.1152,-0.1213,-0.1221,-0.1301,-0.1345,-0.1398,-0.1422,-0.1521,-0.1457,-0.1526,-0.1583,-0.1607,-0.1617,-0.1626,-0.1583,-0.1587,-0.1542,-0.1543,-0.1543,0,-0.0987,-0.0997,-0.1024,-0.1034,-0.1048,-0.1077,-0.1094,-0.1136,-0.1185,-0.1226,-0.1255,-0.1349,-0.1417,-0.1475,-0.1543,-0.1554,-0.1502,-0.152,-0.162,-0.1628,-0.1635,-0.1589,-0.1593,-0.1547,-0.1547,-0.1546,-0.1546,0,-0.0982,-0.1004,-0.1011,-0.1038,-0.1066,-0.1077,-0.114,-0.1198,-0.1264,-0.1304,-0.1399,-0.1474,-0.1549,-0.1591,-0.1613,-0.1696,-0.1618,-0.1621,-0.1572,-0.1653,-0.16,-0.1602,-0.1554,-0.1552,-0.1551,-0.155,0,0,-0.0982,-0.1003,-0.1012,-0.1028,-0.1064,-0.1089,-0.1169,-0.124,-0.1291,-0.1385,-0.1451,-0.1594,-0.1641,-0.1673,-0.1705,-0.1738,-0.1806,-0.1709,-0.1708,-0.1646,-0.1774,-0.1608,-0.1592,-0.1794,-0.1795,-0.1796,-0.1707,0,-0.0972,-0.0982,-0.1006,-0.1041,-0.1052,-0.1114,-0.1181,-0.1262,-0.1347,-0.1426,-0.1525,-0.1603,-0.1666,-0.1719,-0.1776,-0.1803,-0.1816,-0.1825,-0.1721,-0.1718,-0.1545,-0.1593,-0.1801,-0.1708,-0.1708,-0.1709,-0.1709,0,-0.0958,-0.0967,-0.0992,-0.1044,-0.1061,-0.1097,-0.1204,-0.1274,-0.1387,-0.147,-0.1558,-0.1601,-0.1727,-0.1753,-0.1826,-0.1808,-0.1814,-0.1799,-0.1796,-0.1609,-0.1556,-0.1618,-0.1711,-0.1711,-0.1711,-0.1711,-0.1711,0,-0.093,-0.0965,-0.0987,-0.0997,-0.1063,-0.1119,-0.1175,-0.1286,-0.1353,-0.1493,-0.1524,-0.1644,-0.174,-0.1753,-0.1795,-0.1821,-0.1771,-0.1827,-0.1641,-0.1626,-0.1764,-0.1755,-0.1832,-0.1832,-0.1832,-0.1833,-0.1833,0,-0.0893,-0.0916,-0.098,-0.0986,-0.1024,-0.1112,-0.1176,-0.1266,-0.1377,-0.1399,-0.1548,-0.1541,-0.1746,-0.1734,-0.1749,-0.1676,-0.1763,-0.1634,-0.1601,-0.1798,-0.1795,-0.1762,-0.1755,-0.1829,-0.183,-0.1831,-0.1831,0,-0.0853,-0.0891,-0.0911,-0.0983,-0.1005,-0.1049,-0.1141,-0.1185,-0.1313,-0.1339,-0.1382,-0.1531,-0.155,-0.1598,-0.1644,-0.1629,-0.1558,-0.1484,-0.1619,-0.1596,-0.1409,-0.1408,-0.1334,-0.1328,-0.1323,-0.1318,-0.1314,0,-0.0825,-0.0833,-0.0883,-0.089,-0.092,-0.0985,-0.1013,-0.1152,-0.1183,-0.1252,-0.1235,-0.1305,-0.1363,-0.1273,-0.1383,-0.1354,-0.1343,-0.1306,-0.1449,-0.1387,-0.1363,-0.1371,-0.1377,-0.1305,-0.1304,-0.1303,-0.1301,0,-0.0758,-0.0789,-0.0801,-0.0805,-0.0832,-0.084,-0.0888,-0.0896,-0.1016,-0.1107,-0.1071,-0.108,-0.1085,-0.1178,-0.1154,-0.1123,-0.1354,-0.1251,-0.1266,-0.14,-0.1351,-0.1334,-0.1347,-0.1282,-0.1285,-0.1287,-0.1288,0,-0.0708,-0.0693,-0.0712,-0.0713,-0.0721,-0.069,-0.0729,-0.0746,-0.0799,-0.0894,-0.085,-0.0897,-0.1028,-0.1041,-0.0972,-0.0983,-0.1038,-0.1053,-0.108,-0.1102,-0.1077,-0.0984,-0.076,0,0,0,0,0,-0.0648,-0.0622,-0.0612,-0.0596,-0.0596,-0.0598,-0.0638,-0.0693,-0.0763,-0.0706,-0.0799,-0.0765,-0.0781,-0.0827,-0.0808,-0.0896,-0.1041,-0.0869,-0.1071,-0.1177,-0.1199,-0.1197,0,0,0,0,0,0,-0.0606,-0.0592,-0.0581,-0.0497,-0.0465,-0.0451,-0.0465,-0.0516,-0.0516,-0.0601,-0.063,-0.0701,-0.0752,-0.0776,-0.0785,-0.0799,-0.0907,-0.0925,-0.0922,-0.1165,-0.1185,-0.1202,-0.1208,0,0,0,0,0]},{"header":{"parameterUnit":"m.s-1","parameterCategory":2,"la1":30.2991,"la2":30.254,"lo1":-89.0895,"lo2":-89.0444,"dy":0.0017,"dx":0.0017,"nx":28,"ny":28,"refTime":"2023-11-07T09:00:00:Z","depth":"4","parameterNumber":3,"parameterNumberName":"V-component_of_CURRENTS"},"data":[0,0,0,0,0,0,0,0,0,0,0,0,0,0,0,0,0,0,0,0,0,0,0,0,0,0,0,0,0,0,0,0,0,0,0,0,0,0,0,0,0,0,0,0,0,0,0,0,0,0,0,0,0,0,0,0,0,0,0.0069,0.0069,0,0.0062,0.0062,0.0061,0.0091,0.0093,0.0094,0.0096,0.0119,0.0118,0.0117,0,0,0,0,0,0,0,0,0,0,0,0,0,0.0051,0.0051,0.0069,0.0069,0.007,0.0062,0.0062,0.0061,0.0091,0.0093,0.0095,0.0096,0.0119,0.0118,0.0117,0,0,0,0,0,0,0,0,0,0,0,0,0,0.0048,0.0051,0.0069,0.0088,0.009,0.0062,0.0062,0.0061,0.0091,0.0093,0.0095,0.0097,0.0119,0.0118,0.0117,0.0069,0,0,0.0114,0.0114,0,0,0,0,0,0,0,0,0.0048,0.0048,0.0085,0.0087,0.0089,0.0085,0.0064,0.0067,0.009,0.0085,0.0096,0.0098,0.0112,0.0112,0.0098,0.007,0.0071,0.0114,0.0113,0.0113,0.0113,0,0,0,0,0,0,0,0.0048,0.0048,0.0061,0.0085,0.0088,0.0078,0.008,0.0064,0.0083,0.0085,0.0089,0.0096,0.0113,0.0098,0.0099,0.0072,0.0114,0.0113,0.0113,0.0112,0.0034,0.0032,0,0,0,0,0,0,0.0061,0.0048,0.0061,0.0061,0.008,0.0077,0.0079,0.0079,0.0083,0.0087,0.0094,0.0098,0.0099,0.01,0.01,0.0038,0.0113,0.0112,0.0111,0.0035,0.0033,0.0032,0,0,0,0,0,0,0.006,0.0062,0.0061,0.0059,0.006,0.0076,0.0076,0.0078,0.0075,0.009,0.0094,0.0091,0.0101,0.0101,0.008,0.004,0.0112,0.0111,0.0037,0.0035,0.0033,-0.0081,0,0,0,0,0,0,0.006,0.0061,0.0062,0.006,0.006,0.0039,0.0075,0.0077,0.0078,0.0083,0.0088,0.0092,0.0102,0.0081,0.0079,0.004,0.011,0.0039,0.0036,0.0033,-0.0076,-0.0087,-0.0097,0,0,0,0,0,0.0059,0.0048,0.0061,0.0063,0.0062,0.0039,0.0036,0.0052,0.0076,0.0059,0.0065,0.0092,0.0063,0.0079,0.0077,0.0036,0.004,0.0037,0.0033,-0.0071,-0.0085,-0.0097,0,0,0,0,0,0,0.0038,0.0051,0.0065,0.0059,0.0051,0.0046,0.0034,0.0048,0.0036,0.0044,0.0065,0.0066,0.0032,0.0052,0.0069,0.0008,0.0059,0.0055,-0.002,-0.0033,-0.0043,-0.0029,0.0109,0,0,0,0,0,0.0035,0.0029,0.0037,0.0028,0.0025,0.0029,0.0024,0.0031,0.0026,0.0024,0.0029,0.0032,0.0012,0.0007,-0.0003,-0.0042,0.0018,-0.0065,-0.0075,-0.0085,-0.0073,-0.0023,-0.0027,0.0021,0.0021,0.0021,0,0,0.0027,0.003,0.003,0.0023,0.0017,-0.002,0.0029,0.0012,-0.0012,0.0026,-0.0008,-0.0009,-0.0006,-0.0053,-0.0065,-0.0038,-0.0068,-0.0089,-0.0097,-0.008,-0.0027,-0.0031,-0.0035,0.0019,0.0019,0.0019,0,0,-0.0016,0.0005,-0.0021,-0.0037,-0.0045,-0.005,-0.0054,-0.0061,-0.0052,-0.0086,-0.0069,-0.0099,-0.011,-0.0135,-0.0144,-0.0219,-0.0128,-0.0208,-0.0253,-0.0206,-0.0209,-0.0211,-0.0145,-0.014,-0.0212,-0.0212,-0.0212,0,-0.0027,-0.0059,-0.0035,-0.0078,-0.0101,-0.0069,-0.0121,-0.0118,-0.013,-0.0134,-0.0103,-0.016,-0.0158,-0.0231,-0.0245,-0.0247,-0.0174,-0.0211,-0.0219,-0.0219,-0.0219,-0.0151,-0.0144,-0.0218,-0.0217,-0.0217,-0.0216,0,-0.0099,-0.0126,-0.0148,-0.0191,-0.0217,-0.0254,-0.0249,-0.0255,-0.0237,-0.0237,-0.0279,-0.0289,-0.0309,-0.0329,-0.0303,-0.0326,-0.0259,-0.024,-0.0185,-0.0231,-0.0156,-0.0147,-0.0226,-0.0224,-0.0223,-0.0221,0,0,-0.0122,-0.0185,-0.0193,-0.0233,-0.0279,-0.0308,-0.0342,-0.037,-0.0375,-0.0388,-0.0413,-0.0463,-0.0436,-0.0442,-0.0432,-0.0399,-0.0346,-0.0303,-0.0298,-0.0235,-0.0196,-0.0162,-0.0147,-0.0302,-0.0301,-0.03,-0.0146,0,-0.0188,-0.028,-0.0301,-0.04,-0.0448,-0.0445,-0.0476,-0.0492,-0.0478,-0.0484,-0.0493,-0.0517,-0.0486,-0.0491,-0.0457,-0.0356,-0.0322,-0.0386,-0.0162,-0.0155,-0.0118,-0.0137,-0.0297,-0.0138,-0.0136,-0.0134,-0.0133,0,-0.0256,-0.0309,-0.0412,-0.0487,-0.0506,-0.0564,-0.0598,-0.062,-0.0613,-0.0589,-0.0609,-0.0586,-0.0571,-0.0527,-0.0388,-0.0408,-0.0304,-0.0235,-0.0227,-0.0143,-0.0104,-0.0081,-0.0115,-0.0116,-0.0118,-0.0119,-0.012,0,-0.0283,-0.0386,-0.0468,-0.0502,-0.0581,-0.062,-0.0654,-0.0662,-0.0668,-0.0656,-0.0653,-0.0623,-0.059,-0.0471,-0.0313,-0.032,-0.0126,-0.0129,-0.0024,-0.002,-0.0044,-0.0044,-0.0044,-0.0044,-0.0044,-0.0045,-0.0045,0,-0.0348,-0.0412,-0.0487,-0.0537,-0.0617,-0.066,-0.0719,-0.0719,-0.073,-0.0729,-0.0709,-0.0689,-0.0557,-0.044,-0.0303,-0.011,-0.0113,-0.0021,0.0021,-0.0097,-0.0105,-0.0037,-0.0038,-0.0039,-0.004,-0.0041,-0.0042,0,-0.0376,-0.0425,-0.0518,-0.0608,-0.0638,-0.0693,-0.0767,-0.0784,-0.0784,-0.0779,-0.0778,-0.0701,-0.0509,-0.0385,-0.0164,-0.0093,0.007,0.0124,0.001,0.0041,0.0143,0.0134,0.0264,0.0266,0.0268,0.027,0.0271,0,-0.0405,-0.0454,-0.0556,-0.06,-0.0654,-0.073,-0.0764,-0.0799,-0.0799,-0.077,-0.0751,-0.062,-0.0532,-0.0212,-0.0069,0.0172,0.0181,0.0237,0.016,0.0147,0.0175,0.0162,0.015,0.0275,0.0275,0.0276,0.0276,0,-0.0452,-0.0477,-0.0544,-0.0618,-0.0684,-0.0744,-0.0791,-0.0795,-0.079,-0.081,-0.0694,-0.0578,-0.0368,-0.0157,0.0026,0.0183,0.0187,0.0259,0.0254,0.0182,0.0162,0.0184,0.017,0.0284,0.0282,0.0282,0.0281,0,-0.0469,-0.0507,-0.0567,-0.0634,-0.0697,-0.0721,-0.076,-0.0742,-0.0748,-0.0708,-0.0649,-0.0482,-0.0381,-0.0147,0.0029,0.0189,0.0207,0.0198,0.0197,0.0191,0.0107,0.0066,0.0204,0,0,0,0,0,-0.0482,-0.0514,-0.0574,-0.0639,-0.0687,-0.0719,-0.0749,-0.0768,-0.0763,-0.0672,-0.0662,-0.0464,-0.022,-0.0126,0.0052,0.0065,0.0232,0.0269,0.022,0.0324,0.0315,0.023,0,0,0,0,0,0,-0.0494,-0.0545,-0.0568,-0.061,-0.0644,-0.0692,-0.0707,-0.0711,-0.0649,-0.063,-0.0481,-0.0456,-0.0192,-0.0298,0.0049,0.0092,0.0071,0.0378,0.038,0.0328,0.0321,0.0314,0.0224,0,0,0,0,0]}]]